Laconia, NH

2:11 PM EDT on June 27, 2017 (GMT -0400)
Laconia Municipal

Weather History for KLCI - October, 2011

Change the Weather History Date:

Tuesday, October 25, 2011

  Actual Average Record
Temperature  
Mean Temperature 48 °F -  
Max Temperature 51 °F 60 °F 71 °F (1995)
Min Temperature 42 °F 36 °F 23 °F (2002)
Degree Days  
Heating Degree Days 18    
Moisture  
Dew Point 29 °F    
Average Humidity 50    
Maximum Humidity 61    
Minimum Humidity 43    
Precipitation  
Precipitation 0.00 in - - ()
Sea Level Pressure  
Sea Level Pressure 29.91 in    
Wind  
Wind Speed 10 mph (WNW)    
Max Wind Speed 15 mph    
Max Gust Speed 24 mph    
Visibility 10 miles    
Events      
Averages and records for this station are not official NWS values.
T = Trace of Precipitation, MM = Missing Value Source: NWS Daily Summary

Daily Weather History Graph

Daily Weather History Graph

Search for Another Location

Airport or City:

Trip Planner

Search our weather history database for the weather conditions in past years. The results will help you decide how hot, cold, wet, or windy it might be!

Date:

Astronomy

Oct. 25, 2011 Rise Set
Actual Time 7:11 AM EDT 5:46 PM EDT
Civil Twilight 6:42 AM EDT 6:16 PM EDT
Nautical Twilight 6:09 AM EDT 6:49 PM EDT
Astronomical Twilight 5:35 AM EDT 7:22 PM EDT
Moon 5:39 AM EDT (10/25) 4:46 PM EDT (10/25)
Length of Visible Light 11h 33m
Length of Day
10h 35m
Waning Crescent, 2% of the Moon is Illuminated
Oct 25
Waning Crescent
Oct 26
New
Nov 2
First Quarter
Nov 10
Full
Nov 18
Last Quarter

Hourly Weather History & Observations

Time (EDT) Temp. Windchill Dew Point Humidity Pressure Visibility Wind Dir Wind Speed Gust Speed Precip Events Conditions
3:55 PM 51.8 °F - 30.2 °F 44% 29.86 in 10.0 mi WNW 13.8 mph 19.6 mph N/A   Clear
4:35 PM 51.8 °F - 30.2 °F 44% 29.86 in 10.0 mi WNW 12.7 mph 17.3 mph N/A   Clear
4:55 PM 51.8 °F - 32.0 °F 47% 29.87 in 10.0 mi West 15.0 mph 18.4 mph N/A   Clear
5:15 PM 51.8 °F - 30.2 °F 44% 29.87 in 10.0 mi West 8.1 mph 18.4 mph N/A   Clear
5:35 PM 50.0 °F - 30.2 °F 47% 29.88 in 10.0 mi WNW 11.5 mph 24.2 mph N/A   Clear
5:55 PM 50.0 °F - 28.4 °F 43% 29.88 in 10.0 mi WNW 9.2 mph 19.6 mph N/A   Clear
6:15 PM 48.2 °F - 28.4 °F 46% 29.90 in 10.0 mi WNW 11.5 mph 17.3 mph N/A   Clear
6:35 PM 48.2 °F - 28.4 °F 46% 29.91 in 10.0 mi WNW 12.7 mph 19.6 mph N/A   Clear
7:35 PM 46.4 °F 41.9 °F 28.4 °F 50% 29.92 in 10.0 mi West 9.2 mph 18.4 mph N/A   Clear
7:55 PM 46.4 °F 40.1 °F 28.4 °F 50% 29.92 in 10.0 mi WNW 15.0 mph 19.6 mph N/A   Clear
8:15 PM 46.4 °F 41.9 °F 28.4 °F 50% 29.92 in 10.0 mi West 9.2 mph 19.6 mph N/A   Clear
8:35 PM 46.4 °F 41.9 °F 28.4 °F 50% 29.93 in 10.0 mi West 9.2 mph - N/A   Clear
9:15 PM 46.4 °F 41.5 °F 28.4 °F 50% 29.93 in 10.0 mi WNW 10.4 mph - N/A   Clear
9:55 PM 44.6 °F 40.2 °F 28.4 °F 53% 29.93 in 10.0 mi WNW 8.1 mph - N/A   Clear
10:15 PM 44.6 °F 43.1 °F 30.2 °F 57% 29.93 in 10.0 mi West 3.5 mph - N/A   Clear
10:35 PM 44.6 °F - 28.4 °F 53% 29.93 in 10.0 mi Calm Calm - N/A   Clear
10:55 PM 44.6 °F 43.1 °F 28.4 °F 53% 29.92 in 10.0 mi West 3.5 mph - N/A   Clear
11:15 PM 44.6 °F - 28.4 °F 53% 29.92 in 10.0 mi Calm Calm - N/A   Clear
11:35 PM 42.8 °F 41.1 °F 30.2 °F 61% 29.92 in 10.0 mi WSW 3.5 mph - N/A   Clear